Weather History for West Palm Beach, FL

Change the Weather History Date:

Monday, August 25, 2014

  Actual Average Record
Temperature  
Mean Temperature 85 °F 83 °F  
Max Temperature 91 °F 90 °F 99 °F (1924)
Min Temperature 79 °F 76 °F 67 °F (1919)
Degree Days  
Heating Degree Days 0 0  
Month to date heating degree days 0 0  
Since 1 June heating degree days 0 0  
Since 1 July heating degree days 0 0  
Cooling Degree Days 20 18  
Month to date cooling degree days 484 450  
Year to date cooling degree days 2888 2598  
Since 1 June cooling degree days 1536 1489  
Growing Degree Days 35 (Base 50)    
Moisture  
Dew Point 76 °F    
Average Humidity 76    
Maximum Humidity 91    
Minimum Humidity 60    
Precipitation  
Precipitation 0.05 in 0.27 in 3.40 in (1994)
Month to date precipitation 9.42 6.30  
Year to date precipitation 42.85 39.07  
Snow  
Snow 0.00 in - - ()
Month to date snowfall 0.0  
Since 1 June snowfall 0.0  
Since 1 July snowfall 0.0  
Snow Depth 0.00 in    
Sea Level Pressure  
Sea Level Pressure 29.76 in    
Wind  
Wind Speed 14 mph (NNE)    
Max Wind Speed 26 mph    
Max Gust Speed 31 mph    
Visibility 10 miles    
Events Rain    
T = Trace of Precipitation, MM = Missing Value Source: NWS Daily Summary

Daily Weather History Graph

Daily Weather History Graph

Search for Another Location

Airport:

Trip Planner

Search our weather history database for the weather conditions in past years. The results will help you decide how hot, cold, wet, or windy it might be!

Date:

Astronomy

Aug. 25, 2014 Rise Set
Actual Time 6:56 AM EDT 7:47 PM EDT
Civil Twilight 6:33 AM EDT 8:11 PM EDT
Nautical Twilight 6:04 AM EDT 8:39 PM EDT
Astronomical Twilight 5:36 AM EDT 9:08 PM EDT
Moon 6:56 AM EDT (8/25) 7:44 PM EDT (8/25)
Length of Visible Light 13h 38m
Length of Day
12h 50m
New Moon, 0% of the Moon is Illuminated
Aug 25
New Moon
Sep 2
First Quarter
Sep 8
Full
Sep 15
Last Quarter
Sep 24
New

Hourly Weather History & Observations

Time (EDT) Temp. Heat Index Dew Point Humidity Pressure Visibility Wind Dir Wind Speed Gust Speed Precip Events Conditions
12:53 AM 82.0 °F 90.2 °F 77.0 °F 85% 29.78 in 10.0 mi NW 4.6 mph - N/A   Scattered Clouds
1:53 AM 81.0 °F 87.9 °F 77.0 °F 88% 29.76 in 10.0 mi WNW 5.8 mph - N/A   Scattered Clouds
2:53 AM 80.1 °F 85.1 °F 75.0 °F 85% 29.75 in 10.0 mi West 4.6 mph - N/A   Scattered Clouds
3:53 AM 80.1 °F 85.4 °F 75.9 °F 87% 29.73 in 10.0 mi WNW 6.9 mph - N/A   Scattered Clouds
4:53 AM 80.1 °F 85.8 °F 77.0 °F 90% 29.73 in 10.0 mi WNW 6.9 mph - N/A   Scattered Clouds
5:53 AM 80.1 °F 85.8 °F 77.0 °F 90% 29.73 in 10.0 mi WNW 8.1 mph - N/A   Scattered Clouds
6:53 AM 80.1 °F 85.8 °F 77.0 °F 90% 29.74 in 10.0 mi NNW 9.2 mph - N/A   Mostly Cloudy
7:53 AM 81.0 °F 87.9 °F 77.0 °F 88% 29.75 in 10.0 mi NW 10.4 mph - 0.00 in   Mostly Cloudy
8:53 AM 82.9 °F 91.8 °F 77.0 °F 82% 29.75 in 10.0 mi NNW 9.2 mph - N/A   Scattered Clouds
9:53 AM 88.0 °F 101.3 °F 78.1 °F 72% 29.76 in 10.0 mi North 8.1 mph - N/A   Scattered Clouds
10:25 AM 86.0 °F 96.9 °F 77.0 °F 74% 29.76 in 10.0 mi North 6.9 mph - 0.00 in   Mostly Cloudy
10:53 AM 82.9 °F 92.8 °F 78.1 °F 85% 29.76 in 10.0 mi North 10.4 mph - 0.01 in Rain Light Rain
11:51 AM 87.8 °F 102.5 °F 78.8 °F 75% 29.76 in 10.0 mi NE 12.7 mph 21.9 mph 0.04 in   Mostly Cloudy
11:53 AM 88.0 °F 101.3 °F 78.1 °F 72% 29.76 in 10.0 mi NNE 16.1 mph 21.9 mph 0.04 in   Mostly Cloudy
12:35 PM 87.1 °F 97.3 °F 75.9 °F 69% 29.76 in 10.0 mi NE 15.0 mph - 0.00 in Rain Light Rain
12:53 PM 89.1 °F 101.4 °F 77.0 °F 67% 29.76 in 10.0 mi NE 17.3 mph - 0.00 in   Mostly Cloudy
1:12 PM 90.0 °F 101.3 °F 75.9 °F 63% 29.76 in 10.0 mi ENE 16.1 mph 24.2 mph N/A   Mostly Cloudy
1:53 PM 91.0 °F 102.9 °F 75.9 °F 61% 29.75 in 10.0 mi NE 17.3 mph 24.2 mph N/A   Mostly Cloudy
2:46 PM 89.1 °F 100.2 °F 75.9 °F 65% 29.75 in 10.0 mi NNE 19.6 mph - N/A   Mostly Cloudy
2:53 PM 86.0 °F 96.9 °F 77.0 °F 74% 29.75 in 10.0 mi NE 16.1 mph 27.6 mph 0.00 in Rain Light Rain
3:43 PM 88.0 °F 98.5 °F 75.9 °F 67% 29.74 in 10.0 mi NE 19.6 mph - 0.00 in   Mostly Cloudy
3:53 PM 89.1 °F 99.1 °F 75.0 °F 63% 29.74 in 10.0 mi NE 19.6 mph 27.6 mph 0.00 in   Mostly Cloudy
4:53 PM 84.9 °F 93.3 °F 75.0 °F 72% 29.74 in 10.0 mi NE 23.0 mph 31.1 mph N/A   Mostly Cloudy
5:53 PM 84.9 °F 92.1 °F 73.9 °F 69% 29.76 in 10.0 mi ENE 15.0 mph 23.0 mph 0.00 in   Mostly Cloudy
6:53 PM 84.9 °F 91.4 °F 73.0 °F 67% 29.76 in 10.0 mi NE 17.3 mph 24.2 mph N/A   Mostly Cloudy
7:53 PM 84.9 °F 92.1 °F 73.9 °F 69% 29.77 in 10.0 mi NE 17.3 mph - N/A   Mostly Cloudy
8:53 PM 84.9 °F 91.4 °F 73.0 °F 67% 29.77 in 10.0 mi NE 24.2 mph 28.8 mph 0.00 in   Mostly Cloudy
9:53 PM 84.9 °F 90.7 °F 72.0 °F 65% 29.79 in 10.0 mi NE 15.0 mph 23.0 mph N/A   Mostly Cloudy
10:53 PM 84.0 °F 89.0 °F 71.1 °F 65% 29.80 in 10.0 mi NE 18.4 mph - N/A   Scattered Clouds
11:53 PM 84.0 °F 88.4 °F 70.0 °F 63% 29.80 in 10.0 mi NE 18.4 mph 24.2 mph N/A   Scattered Clouds